GEFSNGP_con_probscp_156.txt.gz
Probability
0 0 0 1 1 0 0 0 0 0 1 0 0 0 0 0 0 0 0 0 0 0 0 0 2 4 4 3 2 1 2 3 4 3 1 0 0 0 0 0 0 0 0 0
0 0 1 2 2 1 0 0 0 0 1 0 0 0 1 1 0 0 0 0 0 0 0 1 2 3 3 2 1 1 1 2 2 2 0 0 0 0 0 0 0 0 0 0
0 0 1 2 2 1 0 0 0 0 0 0 1 2 3 2 0 0 0 0 0 0 0 1 2 3 2 1 1 1 1 1 1 0 0 0 0 0 0 0 0 0 0 0
0 0 1 2 2 1 1 0 0 1 1 2 3 4 4 2 0 0 0 0 0 0 0 1 2 3 2 1 0 1 1 1 0 0 0 0 0 0 0 0 0 0 0 0
0 0 0 1 2 2 1 0 1 2 3 4 4 4 4 2 1 0 0 0 0 0 0 0 1 1 1 1 0 0 0 0 0 0 0 0 0 0 0 0 0 0 0 1
0 0 0 0 1 1 1 0 2 4 4 4 3 3 3 3 2 1 0 0 0 0 0 0 1 1 0 0 0 0 0 0 0 0 0 0 0 0 0 0 0 0 0 1
0 0 0 0 1 1 0 1 3 5 5 4 3 3 3 4 3 2 1 0 0 0 0 0 0 0 0 0 0 0 0 0 0 0 0 0 0 0 0 0 0 0 0 1
0 0 0 0 1 2 2 3 5 6 5 5 5 4 3 3 4 3 2 0 0 0 0 0 0 0 0 0 0 0 0 0 0 0 0 1 1 0 1 1 1 1 0 0
0 0 0 0 1 2 3 4 5 5 5 4 4 2 2 2 2 2 1 0 0 0 0 0 0 0 0 0 1 0 0 0 0 0 0 1 1 1 2 2 2 2 1 1
0 0 0 0 0 1 2 3 3 3 3 2 1 1 1 1 1 0 0 0 0 0 0 0 0 0 0 0 0 0 0 0 0 0 1 1 2 2 3 3 3 3 3 2
0 0 0 0 1 1 1 1 1 1 1 1 0 0 0 0 0 0 0 0 0 0 0 0 0 0 0 0 0 0 0 0 0 0 1 2 3 3 3 2 2 2 2 2
0 0 0 1 2 2 1 0 0 0 0 0 0 0 0 0 0 0 0 0 0 0 0 0 0 0 0 0 0 0 0 0 0 0 1 3 3 3 1 1 1 1 1 1
0 0 0 2 3 2 1 0 0 0 0 0 0 0 0 0 0 0 0 0 0 0 0 0 0 0 0 0 0 0 0 0 0 0 1 2 3 2 1 0 0 0 0 0
0 0 1 2 2 1 0 0 0 0 0 0 0 0 0 0 0 0 0 0 0 0 0 0 0 0 0 0 0 0 0 0 0 0 0 1 1 2 1 0 0 0 0 0
0 0 1 1 1 0 0 0 0 0 0 0 0 0 0 0 0 0 0 0 0 0 0 0 0 0 0 0 0 0 0 0 0 0 0 0 0 1 1 0 0 0 0 0
0 0 1 1 0 0 0 0 0 0 0 0 0 0 0 0 0 0 0 0 0 0 0 0 0 0 0 0 0 0 0 0 0 0 0 0 0 0 0 0 0 0 0 0
0 0 0 0 0 0 0 0 0 0 0 0 0 0 0 0 0 0 0 0 0 0 0 0 0 0 0 0 0 0 0 0 0 0 0 0 0 0 0 0 0 0 0 0
0 0 0 0 0 0 0 0 0 0 0 0 0 0 0 0 0 0 0 0 0 0 0 0 0 0 0 0 0 0 0 0 0 0 0 0 0 0 0 0 0 0 0 0
0 0 0 0 0 0 0 0 0 0 0 0 0 0 0 0 0 0 0 0 0 0 0 0 0 0 0 0 0 0 0 0 0 0 0 0 0 0 0 0 0 0 0 0
0 0 0 0 0 0 0 0 0 0 0 0 0 0 0 0 0 0 0 0 0 0 0 0 0 0 0 0 0 0 0 0 0 0 0 0 0 0 0 0 0 0 0 0
0 0 0 0 0 0 0 0 0 0 0 0 0 0 0 0 0 0 0 0 0 0 0 0 0 0 0 0 0 0 0 0 0 0 0 0 0 0 0 0 0 0 0 0
0 0 0 0 0 0 0 0 0 0 0 0 0 0 0 0 0 0 0 0 0 0 0 0 0 0 0 0 0 0 0 0 0 0 0 0 0 0 0 0 0 0 0 0
0 0 0 0 0 0 0 0 0 0 0 0 0 0 0 0 0 0 0 0 0 0 0 0 0 0 0 0 0 0 0 0 0 0 0 0 0 0 0 0 0 0 0 0
0 0 0 0 0 0 0 0 0 0 0 0 0 0 0 0 0 0 0 0 0 0 0 0 0 0 0 0 0 0 0 0 0 0 0 0 0 0 0 0 0 0 0 0
0 0 0 0 0 0 0 0 0 0 0 0 0 0 0 0 0 0 0 0 0 0 0 0 0 0 0 0 0 0 0 0 0 0 0 0 0 0 0 0 0 0 0 0
0 0 0 0 0 0 0 0 0 0 0 0 0 0 0 0 0 0 0 0 0 0 0 0 0 0 0 0 0 0 0 0 0 0 0 0 0 0 0 0 0 0 0 0
0 0 0 0 0 0 0 0 0 0 0 0 0 0 0 0 0 0 0 0 0 0 0 0 0 0 0 0 0 0 0 0 0 0 0 0 0 0 0 0 0 0 0 0

GEFSNGP_con_probscp_162.txt.gz
Probability
1 0 0 0 0 0 0 0 0 0 1 3 4 4 5 5 6 7 8 11 16 21 22 21 21 24 24 22 21 18 14 10 9 8 5 4 4 4 5 6 8 11 12 12
1 0 0 0 0 0 0 0 0 0 1 4 5 4 5 7 8 9 9 10 13 17 19 18 19 22 22 21 20 17 13 11 11 9 6 4 5 6 6 8 10 11 12 12
1 0 0 0 0 0 0 1 1 1 2 5 7 7 7 8 9 10 10 9 10 11 13 15 17 20 21 20 19 15 13 12 12 11 7 5 6 6 6 8 10 11 12 13
0 0 0 0 1 1 1 2 2 2 3 5 9 11 10 8 7 8 9 10 9 9 11 14 17 20 21 20 18 15 12 12 12 10 7 5 6 5 5 5 7 9 11 12
0 0 0 0 0 1 2 3 3 4 5 6 9 10 9 9 8 7 8 9 9 9 11 14 18 20 20 20 19 16 12 10 9 7 4 4 4 4 4 4 4 5 6 6
0 0 0 1 0 1 2 3 4 5 5 6 8 10 11 11 10 7 8 9 10 10 11 13 16 17 17 18 18 15 12 8 7 5 3 3 4 6 6 5 4 3 2 2
0 0 2 4 4 5 7 9 9 9 8 7 11 16 16 14 11 9 9 10 10 10 10 10 11 12 12 13 13 12 10 7 6 5 4 4 6 8 7 6 5 4 2 1
1 2 5 9 12 12 15 17 18 16 15 14 16 18 16 14 13 12 12 11 10 9 9 9 9 9 8 8 8 8 7 6 5 4 3 3 4 6 6 6 5 5 3 1
6 7 8 12 15 15 16 19 20 19 18 17 16 14 12 11 12 14 15 13 10 9 9 9 9 9 7 6 6 5 4 3 2 1 0 1 1 3 5 5 5 4 4 3
11 11 9 9 10 10 11 14 15 14 13 12 11 10 9 9 12 14 15 13 10 9 8 7 7 7 6 5 5 3 2 1 1 0 0 0 1 2 4 4 4 4 4 5
12 11 8 6 5 6 7 9 10 9 8 7 7 7 8 9 10 12 12 12 11 8 6 5 5 5 5 5 4 3 1 0 0 0 0 0 1 2 3 3 2 3 3 3
9 9 7 6 5 5 6 7 7 8 8 8 8 9 9 9 10 11 10 9 8 6 4 4 4 3 4 4 4 2 1 1 1 1 0 0 1 2 2 1 1 1 1 1
6 5 5 5 5 4 5 5 6 7 8 8 8 8 8 8 9 9 6 5 5 4 3 3 3 3 3 4 4 3 2 2 2 2 1 1 2 3 2 1 1 0 0 0
2 2 3 4 3 3 2 2 4 5 5 5 4 4 4 5 5 4 2 2 3 3 3 3 3 3 3 3 3 3 3 3 3 3 3 3 3 3 3 2 1 0 0 0
0 0 1 3 3 2 1 1 1 3 3 2 1 1 1 2 2 1 0 1 2 3 3 3 3 3 3 2 3 3 3 3 3 3 3 3 3 3 3 2 1 0 0 0
1 0 0 1 2 1 1 0 0 1 1 1 1 1 1 1 1 0 0 0 1 2 3 3 3 2 1 1 1 2 2 2 2 2 2 2 2 2 2 1 0 0 0 0
1 1 1 0 0 0 0 0 0 0 0 0 0 0 0 0 0 0 0 0 0 1 1 2 1 1 0 0 0 1 1 1 1 1 1 1 1 1 1 0 0 0 0 0
1 1 1 0 0 0 0 0 0 0 0 0 0 0 0 0 0 0 0 0 0 0 0 0 0 0 0 0 0 0 0 0 0 0 0 0 0 0 0 0 0 0 0 0
0 1 1 0 0 0 0 0 0 0 0 0 0 0 0 0 0 0 0 0 0 0 0 0 0 0 0 0 0 0 0 0 0 0 0 0 0 0 0 0 0 0 0 0
0 0 0 0 0 0 0 0 0 0 0 0 0 0 0 0 0 0 0 0 0 0 0 0 0 0 0 0 0 0 0 0 0 0 0 0 0 0 0 0 0 0 0 0
0 0 0 0 0 0 0 0 0 0 0 0 0 0 0 0 0 0 0 0 0 0 0 0 0 0 0 0 0 0 0 0 0 0 0 0 0 0 0 0 0 0 0 0
0 0 0 0 0 0 0 0 0 0 0 0 0 0 0 0 0 0 0 0 0 0 0 0 0 0 0 0 0 0 0 0 0 0 0 0 0 0 0 0 0 0 0 0
0 0 0 0 0 0 0 0 0 0 0 0 0 0 0 0 0 0 0 0 0 0 0 0 0 0 0 0 0 0 0 0 0 0 0 0 0 0 0 0 0 0 0 0
1 0 0 0 0 0 0 0 0 0 0 0 0 0 0 0 0 0 0 0 0 0 0 0 0 0 0 0 0 0 0 0 0 0 0 0 0 0 0 0 0 0 0 0
2 1 0 0 0 0 0 0 0 0 0 0 0 0 0 0 0 0 0 0 0 0 0 0 0 0 0 0 0 0 0 0 0 0 0 0 0 0 0 0 0 0 0 0
2 1 0 0 0 0 0 0 0 0 0 0 0 0 0 0 0 0 0 0 0 0 0 0 0 0 0 0 0 0 0 0 0 0 0 0 0 0 0 0 0 0 0 0
1 1 0 0 0 0 0 0 0 0 0 0 0 0 0 0 0 0 0 0 0 0 0 0 0 0 0 0 0 0 0 0 0 0 0 0 0 0 0 0 0 0 0 0

GEFSNGP_con_probscp_168.txt.gz
Probability
0 0 0 0 0 0 0 0 1 3 8 19 29 34 33 33 34 35 34 33 33 32 32 30 29 29 28 29 32 34 35 34 32 30 28 27 25 23 22 21 16 12 11 11
0 0 0 0 0 0 0 0 2 7 14 23 32 37 39 38 38 39 36 32 31 30 29 27 27 28 28 29 31 33 34 33 31 28 25 23 20 19 19 18 15 12 10 9
0 0 0 1 0 0 1 1 5 13 23 31 37 43 46 45 44 45 41 35 32 30 28 26 26 26 25 27 29 31 32 31 28 24 19 16 16 16 16 14 12 10 8 7
0 0 0 0 0 1 4 7 12 21 31 37 42 46 49 50 50 49 46 40 36 32 29 26 24 22 22 24 26 29 29 27 23 18 14 13 14 16 15 12 8 7 7 7
0 0 0 1 3 6 11 18 26 35 39 40 40 42 48 51 50 48 45 40 35 32 28 24 22 21 22 23 24 25 25 23 21 17 15 14 13 14 13 10 8 6 6 6
0 0 1 4 8 12 19 29 41 48 45 40 38 41 47 49 45 39 36 32 29 27 25 23 22 23 24 23 23 22 20 20 20 20 17 15 13 13 10 8 7 5 3 3
0 0 3 9 15 22 30 40 50 53 48 43 43 47 48 45 37 30 26 23 22 22 22 23 23 23 22 21 21 19 18 17 17 17 15 14 14 12 9 6 4 2 1 1
6 7 12 20 27 34 41 46 50 51 49 47 46 46 44 38 30 24 22 21 20 21 22 22 21 19 18 17 15 14 14 12 11 11 10 10 10 8 5 2 1 0 0 0
17 18 25 31 34 38 41 40 40 42 42 41 38 35 31 27 24 21 20 21 21 21 21 20 17 15 14 13 10 9 9 8 7 6 5 5 5 3 1 0 0 0 0 0
22 23 26 28 29 31 31 29 28 27 27 26 25 24 23 21 20 18 18 20 19 19 18 15 11 9 11 11 10 7 6 5 4 3 3 3 2 1 0 0 0 0 0 0
20 20 19 19 22 26 28 24 20 18 17 16 17 18 19 19 18 17 17 17 16 16 15 11 7 5 7 10 10 7 5 4 3 2 1 1 1 0 0 0 0 0 0 0
21 19 17 17 19 22 24 22 19 17 15 14 14 15 16 17 17 17 17 16 16 15 11 7 4 3 5 7 7 5 3 3 2 1 0 0 0 1 1 0 0 0 0 0
22 21 20 18 17 16 16 16 17 16 15 14 13 13 13 13 14 14 15 15 14 11 7 4 3 3 4 5 5 4 3 1 1 0 0 0 1 2 2 1 0 0 0 0
19 19 20 19 16 12 10 10 11 13 13 13 13 11 9 7 8 9 11 11 9 6 4 3 3 3 3 4 4 3 3 1 1 1 1 1 2 3 3 2 1 0 0 0
14 15 17 18 15 10 8 8 8 9 10 11 10 9 6 5 6 7 7 6 4 3 2 2 2 2 2 3 3 3 2 2 2 2 2 3 3 3 3 3 2 0 0 0
11 11 12 12 10 7 6 7 7 7 6 7 8 7 6 6 7 7 5 4 3 1 1 1 1 1 1 1 2 1 1 1 2 2 2 2 2 2 2 2 1 0 0 0
9 7 6 6 5 3 3 5 5 4 3 5 6 6 4 4 5 4 2 2 2 1 0 0 0 0 0 0 0 0 0 0 1 1 1 1 1 1 1 1 0 0 0 0
5 4 3 3 2 1 2 3 3 2 2 3 4 3 3 2 2 1 1 1 1 0 0 0 0 0 0 0 0 0 0 0 0 0 0 0 0 0 0 0 0 0 0 0
3 3 2 2 2 2 2 2 1 0 1 1 1 1 1 1 0 0 0 0 0 0 0 0 0 0 0 0 0 0 0 0 0 0 0 0 0 0 0 0 0 0 0 0
3 3 2 2 2 1 1 1 0 0 0 0 0 0 0 0 0 0 0 0 0 0 0 0 0 0 0 0 0 0 0 0 0 0 0 0 0 0 0 0 0 0 0 0
5 4 3 1 1 0 0 0 0 0 0 0 0 0 0 0 0 0 0 0 0 0 0 0 0 0 0 0 0 0 0 0 0 0 0 0 0 0 0 0 0 0 0 0
5 4 2 0 0 0 0 0 0 0 0 0 0 0 0 0 0 0 0 0 0 0 0 0 0 0 0 0 0 0 0 0 0 0 0 0 0 0 0 0 0 0 0 0
3 2 0 0 0 0 0 0 0 0 0 0 0 0 0 0 0 0 0 0 0 0 0 0 0 0 0 0 0 0 0 0 0 0 0 0 0 0 0 0 0 0 0 0
1 1 1 0 0 0 0 0 0 0 0 0 0 0 0 0 0 0 0 0 0 0 0 0 0 0 0 0 0 0 0 0 0 0 0 0 0 0 0 0 0 0 0 0
2 2 2 1 0 0 0 0 0 0 0 0 0 0 0 0 0 0 0 0 0 0 0 0 0 0 0 0 0 0 0 0 0 0 0 0 0 0 0 0 0 0 0 0
2 3 3 2 0 0 0 0 0 0 0 0 0 0 0 0 0 0 0 0 0 0 0 0 0 0 0 0 0 0 0 0 0 0 0 0 0 0 0 0 0 0 0 0
1 2 3 2 0 0 0 0 0 0 0 0 0 0 0 0 0 0 0 0 0 0 0 0 0 0 0 0 0 0 0 0 0 0 0 0 0 0 0 0 0 0 0 0

GEFSNGP_con_probscp_174.txt.gz
Probability
1 1 0 0 0 1 1 1 1 2 4 6 12 18 21 23 24 24 23 22 22 23 25 27 29 27 23 19 16 15 16 17 15 12 10 10 10 9 7 6 6 6 4 3
2 1 0 0 1 2 2 3 4 5 7 10 16 21 23 24 25 24 24 23 22 22 24 25 26 26 23 19 18 18 18 16 13 11 10 10 9 8 7 6 6 6 4 3
1 1 0 0 1 3 5 6 7 8 11 17 24 26 25 26 26 25 25 24 23 22 23 23 23 23 21 19 19 20 20 16 12 10 10 9 9 7 7 6 6 6 4 3
0 0 0 1 2 5 9 12 13 13 17 25 33 35 32 28 26 24 23 23 22 21 22 22 21 20 19 18 18 19 18 15 11 10 9 9 7 6 6 6 5 4 3 2
0 0 1 2 4 8 13 20 24 24 27 34 42 44 39 29 23 21 19 18 18 19 21 20 19 19 18 16 17 18 15 12 9 9 8 7 5 4 4 4 3 2 1 1
0 1 2 4 7 9 14 23 31 34 35 38 41 42 37 28 21 18 16 14 14 15 17 17 16 16 16 16 15 14 11 8 6 5 4 3 3 3 3 3 2 1 0 0
0 1 3 6 10 12 14 21 30 35 37 36 34 32 31 27 21 17 13 12 12 12 13 13 11 11 12 13 12 9 7 5 3 2 1 1 1 1 1 2 2 1 0 0
0 1 2 6 12 14 16 20 26 30 32 31 28 26 25 23 19 14 10 9 9 9 9 8 7 7 8 9 8 6 4 3 1 0 0 0 0 0 0 1 1 0 0 0
3 4 4 6 10 15 18 20 22 22 22 22 22 20 18 16 13 10 8 6 6 6 6 4 3 3 4 4 4 4 2 1 0 0 0 0 0 0 0 0 0 0 0 0
6 6 8 8 9 13 16 16 15 14 13 13 14 13 11 10 8 7 6 5 4 5 5 2 0 1 1 2 3 3 2 0 0 0 0 0 0 0 0 0 0 0 0 0
4 5 7 9 9 10 12 13 11 10 9 9 9 8 7 7 6 6 5 4 4 5 4 1 0 0 0 1 2 2 1 0 0 0 0 0 0 0 0 0 0 0 0 0
2 2 4 6 7 8 10 11 10 9 8 7 7 6 6 5 5 4 4 3 3 3 2 0 0 1 0 0 1 1 1 0 0 0 0 0 0 0 0 0 0 0 0 0
2 2 3 4 5 7 8 9 8 7 6 5 5 5 6 5 4 3 3 2 1 1 0 0 0 0 0 0 0 0 0 0 0 0 0 0 0 0 0 0 0 0 0 0
2 3 3 4 5 7 7 7 6 5 4 3 3 4 5 5 4 3 2 1 0 0 0 0 0 0 0 0 0 1 1 0 0 0 0 0 0 0 0 0 0 0 0 0
2 2 3 5 6 6 7 6 4 3 2 1 1 1 3 3 3 3 2 0 0 0 0 0 0 0 0 0 0 1 1 0 0 0 0 0 0 0 0 0 0 0 0 0
1 1 3 4 5 6 6 5 2 1 1 0 0 0 1 1 2 2 2 0 0 0 0 0 0 0 0 0 0 1 1 0 0 0 0 0 0 0 0 0 0 0 0 0
0 1 2 3 3 3 3 3 2 1 0 1 1 1 1 2 3 2 1 0 0 0 0 0 0 0 0 0 0 0 0 0 0 0 0 0 0 0 0 0 0 0 0 0
0 0 1 1 1 1 1 1 2 2 2 2 2 2 3 3 3 2 1 0 0 0 0 0 0 0 0 0 0 0 0 0 0 0 0 0 0 0 0 0 0 0 0 0
0 0 0 0 0 0 0 0 1 2 2 2 2 2 2 2 2 1 0 0 0 0 0 0 0 0 0 0 0 0 0 0 0 0 0 0 0 0 0 0 0 0 0 0
0 0 0 0 0 0 0 0 0 1 1 1 1 1 1 1 1 0 0 0 0 0 0 0 0 0 0 0 0 0 0 0 0 0 0 0 0 0 0 0 0 0 0 0
0 0 0 0 0 0 0 0 0 0 0 0 0 0 0 0 0 0 0 0 0 0 0 0 0 0 0 0 0 0 0 0 0 0 0 0 0 0 0 0 0 0 0 0
0 0 0 0 0 0 0 0 0 0 0 0 0 0 0 0 0 0 0 0 0 0 0 0 0 0 0 0 0 0 0 0 0 0 0 0 0 0 0 0 0 0 0 0
0 0 0 0 0 0 0 0 0 0 0 0 0 0 0 0 0 0 0 0 0 0 0 0 0 0 0 0 0 0 0 0 0 0 0 0 0 0 0 0 0 0 0 0
0 0 0 0 0 0 0 0 0 0 0 0 0 0 0 0 0 0 0 0 0 0 0 0 0 0 0 0 0 0 0 0 0 0 0 0 0 0 0 0 0 0 0 0
0 0 0 0 0 0 0 0 0 0 0 0 0 0 0 0 0 0 0 0 0 0 0 0 0 0 0 0 0 0 0 0 0 0 0 0 0 0 0 0 0 0 0 0
0 0 0 0 0 0 0 0 0 0 0 0 0 0 0 0 0 0 0 0 0 0 0 0 0 0 0 0 0 0 0 0 0 0 0 0 0 0 0 0 0 0 0 0
0 0 0 0 0 0 0 0 0 0 0 0 0 0 0 0 0 0 0 0 0 0 0 0 0 0 0 0 0 0 0 0 0 0 0 0 0 0 0 0 0 0 0 0

GEFSNGP_con_probscp_180.txt.gz
Probability
0 0 0 0 1 0 0 0 0 0 0 0 1 3 5 8 12 14 15 16 15 14 15 18 21 23 24 24 21 16 13 10 9 9 10 10 10 9 7 6 6 6 6 6
0 0 0 0 1 0 0 0 0 0 0 1 2 4 7 10 12 12 13 15 16 15 15 16 20 22 23 22 18 15 12 9 8 9 9 10 10 9 7 6 6 6 6 6
0 0 0 0 0 0 0 1 0 0 1 2 4 5 7 9 11 12 13 15 16 15 13 14 17 18 19 18 16 13 10 8 7 8 9 9 9 9 7 6 6 6 6 6
0 0 0 0 0 0 1 3 2 2 4 6 8 9 10 11 12 12 14 16 16 14 12 13 14 15 15 16 15 12 9 8 8 9 9 8 8 8 7 6 5 6 6 6
0 0 0 0 0 0 2 5 5 5 9 12 14 16 15 13 12 11 12 14 13 11 10 12 13 13 13 13 12 10 8 8 8 9 8 7 6 6 5 4 4 4 4 4
0 0 0 0 1 1 2 5 6 8 12 16 16 15 14 12 10 9 8 8 8 7 8 10 11 12 11 10 9 8 8 8 8 7 7 6 5 3 3 3 3 3 3 3
0 0 0 1 2 1 1 3 6 9 13 14 11 9 11 12 11 9 7 4 4 4 5 7 8 8 8 8 7 6 6 6 6 6 5 4 2 1 1 2 2 2 3 3
1 1 1 2 2 1 1 3 7 10 13 13 9 9 12 13 13 10 7 4 2 2 2 3 4 5 6 6 6 6 6 5 4 4 3 2 0 0 0 1 1 1 1 2
4 3 3 3 3 3 4 6 9 12 13 12 12 13 13 12 11 9 6 4 3 2 1 1 2 3 4 5 6 6 6 5 3 3 2 1 0 0 0 0 0 0 0 1
7 5 4 4 5 7 8 9 10 11 11 11 12 12 10 9 7 5 4 3 2 1 0 0 1 2 3 4 6 6 5 4 3 1 1 0 0 0 0 0 0 0 0 0
5 3 3 4 6 9 12 11 10 11 10 9 9 8 7 5 3 2 1 1 1 0 0 0 0 1 2 3 4 5 4 3 2 1 0 0 0 0 0 0 0 0 0 0
2 1 2 3 5 9 12 11 10 10 10 9 7 6 4 2 0 0 1 1 1 1 0 0 0 0 1 1 2 2 1 1 1 0 0 0 0 0 0 0 0 0 0 0
0 1 1 2 4 7 10 9 8 8 8 7 6 5 2 0 0 0 0 1 1 1 0 0 0 0 0 0 0 0 0 0 0 0 0 0 0 0 0 0 0 0 0 0
1 1 2 2 4 7 8 8 7 7 6 5 4 3 2 0 0 0 0 0 1 1 0 0 0 0 0 0 0 0 0 0 0 0 0 0 0 0 0 0 0 0 0 0
0 1 1 1 2 5 7 7 6 6 5 4 3 1 1 0 0 0 0 0 0 0 0 0 0 0 0 0 0 0 0 0 0 0 0 0 0 0 0 0 0 0 0 0
0 0 0 1 1 3 3 4 3 3 3 3 2 1 0 0 0 0 0 0 0 0 0 0 0 0 0 0 0 0 0 0 0 0 0 0 0 0 0 0 0 0 0 0
0 0 0 0 1 1 1 1 1 1 1 1 1 0 0 0 0 0 0 0 0 0 0 0 0 0 0 0 0 0 0 0 0 0 0 0 0 0 0 0 0 0 0 0
1 1 0 0 1 2 1 0 0 0 0 0 0 0 0 0 0 0 0 0 0 0 0 0 0 0 0 0 0 0 0 0 0 0 0 0 0 0 0 0 0 0 0 0
2 1 0 0 1 2 2 1 0 0 0 0 0 0 0 0 0 0 0 0 0 0 0 0 0 0 0 0 0 0 0 0 0 0 0 0 0 0 0 0 0 0 0 0
1 1 0 0 1 2 2 1 0 0 0 0 0 0 0 1 1 1 0 0 0 0 0 0 0 0 0 0 0 0 0 0 0 0 0 0 0 0 0 0 0 0 0 0
0 0 0 0 0 1 1 0 0 0 0 0 0 0 0 1 2 1 0 0 0 0 0 0 0 0 0 0 0 0 0 0 0 0 0 0 0 0 0 0 0 0 0 0
0 0 0 0 0 0 0 0 0 0 0 1 1 0 0 1 1 0 0 0 0 0 0 0 0 0 0 0 0 0 0 0 0 0 0 0 0 0 0 0 0 0 0 0
0 0 0 0 0 0 0 0 0 0 0 1 1 0 0 0 0 0 0 0 0 0 0 0 0 0 0 0 0 0 0 0 0 0 0 0 0 0 0 0 0 0 0 0
0 0 0 0 0 0 0 0 0 0 0 1 1 0 0 0 0 0 0 0 0 0 0 0 0 0 0 0 0 0 0 0 0 0 0 0 0 0 0 0 0 0 0 0
0 0 0 0 0 0 0 0 0 0 0 0 0 0 0 0 0 0 0 0 0 0 0 0 0 0 0 0 0 0 0 0 0 0 0 0 0 0 0 0 0 0 0 0
0 0 0 0 0 0 0 0 0 0 0 0 0 0 0 0 0 0 0 0 0 0 0 0 0 0 0 0 0 0 0 0 0 0 0 0 0 0 0 0 0 0 0 0
0 0 0 0 0 0 0 0 0 0 0 0 0 0 0 0 0 0 0 0 0 0 0 0 0 0 0 0 0 0 0 0 0 0 0 0 0 0 0 0 0 0 0 0

GEFSNGP_con_probscp_186.txt.gz
Probability
0 0 0 0 0 0 0 0 0 0 1 4 7 10 13 13 12 17 25 33 40 43 41 40 39 38 37 36 35 35 34 30 24 19 16 14 13 13 14 16 16 15 14 14
0 0 0 0 0 0 0 0 0 0 1 5 7 10 13 15 15 19 25 33 40 42 40 38 37 37 36 35 35 35 34 28 21 18 17 15 13 12 14 15 16 15 14 15
0 0 0 0 0 0 0 0 0 0 2 5 7 9 13 16 18 22 28 33 38 41 39 37 36 35 33 34 35 34 31 25 20 17 16 15 14 13 13 14 15 16 15 15
0 0 0 0 0 0 0 0 0 1 3 6 7 9 12 16 20 27 32 35 38 39 38 36 34 31 28 29 30 30 26 22 19 18 17 15 13 13 12 13 15 16 15 14
0 0 0 0 0 0 0 1 2 3 5 7 8 10 13 17 23 30 35 38 39 37 34 31 30 28 26 25 25 23 21 21 19 19 17 15 13 12 12 13 14 13 12 12
0 0 0 1 1 0 0 2 5 6 8 9 8 11 18 27 32 35 38 40 40 37 32 28 26 27 27 25 21 19 19 19 19 18 17 15 13 12 12 12 11 10 9 8
0 0 2 4 3 3 5 8 9 9 11 13 14 19 31 42 45 41 38 40 39 36 31 26 24 25 25 22 18 16 16 17 17 16 15 13 12 11 11 9 8 7 7 6
1 1 4 8 10 11 16 19 18 15 16 20 25 33 42 48 48 42 38 36 35 31 27 24 21 20 19 16 14 14 15 16 16 16 14 12 10 9 8 7 5 5 5 6
5 5 8 12 16 18 21 25 25 23 23 25 31 36 40 42 41 38 35 32 27 22 20 18 16 15 14 12 11 12 14 14 14 14 13 10 7 5 4 3 2 2 3 3
10 9 10 12 16 18 21 24 25 24 25 26 28 30 31 32 34 33 30 25 19 13 11 11 10 9 9 9 10 11 11 11 11 11 10 8 5 2 1 1 0 0 1 1
13 11 11 12 13 17 21 23 22 21 23 25 25 25 26 26 27 27 25 20 14 9 7 6 5 5 5 7 8 9 10 10 9 9 7 5 3 1 0 1 0 0 0 0
13 13 14 14 13 16 20 20 19 19 22 25 24 23 24 24 23 21 20 16 12 9 6 4 3 3 3 4 6 8 9 9 8 7 5 3 1 0 0 0 0 0 0 0
14 16 17 15 14 16 16 16 16 16 18 21 22 22 22 22 20 17 14 11 9 7 6 4 3 2 1 1 3 5 6 6 6 4 3 1 0 0 0 0 0 0 0 0
14 16 15 14 14 14 13 13 13 13 13 15 18 19 19 18 16 14 11 7 5 4 3 2 1 1 0 0 1 2 3 4 4 2 1 0 0 0 0 0 0 0 0 0
12 13 12 11 11 11 10 10 11 11 11 11 13 13 14 13 12 9 6 4 2 1 1 1 0 0 0 0 0 0 1 2 2 1 0 0 0 0 0 0 0 0 0 0
12 11 10 9 8 7 6 7 8 9 9 9 9 9 9 9 7 4 2 2 1 0 0 0 0 0 0 0 0 0 0 1 1 0 0 0 0 0 0 0 0 0 0 0
11 10 9 8 7 5 4 4 5 6 6 6 6 7 7 6 4 2 1 2 2 1 0 0 0 0 0 0 0 0 0 0 0 0 0 0 0 0 0 0 0 0 0 0
7 6 5 4 5 4 2 2 3 4 4 4 5 6 6 4 3 2 2 2 2 1 0 0 0 0 0 0 0 0 0 0 0 0 0 0 0 0 0 0 0 0 0 0
3 2 1 1 1 1 1 1 2 2 2 3 4 4 4 3 2 1 1 1 1 0 0 0 0 0 0 0 0 0 0 0 0 0 0 0 0 0 0 0 0 0 0 0
0 0 0 0 0 0 0 0 1 1 1 1 2 3 2 2 1 0 0 0 0 0 0 0 0 0 0 0 0 0 0 0 0 0 0 0 0 0 0 0 0 0 0 0
0 0 0 0 0 0 0 0 1 2 2 1 1 2 3 2 2 1 0 0 0 0 0 0 0 0 0 0 0 0 0 0 0 0 0 0 0 0 0 0 0 0 0 0
0 0 0 0 0 0 0 0 1 2 3 3 3 3 3 3 3 2 1 0 0 0 0 0 0 0 0 0 0 0 0 0 0 0 0 0 0 0 0 0 0 0 0 0
0 0 0 0 0 0 0 1 2 3 3 3 3 3 3 3 3 2 1 0 0 0 0 0 0 0 0 0 0 0 0 0 0 0 0 0 0 0 0 0 0 0 0 0
0 0 0 0 0 0 1 2 3 3 3 3 3 3 3 3 3 2 1 0 0 0 0 0 0 0 0 0 0 0 0 0 0 0 0 0 0 0 0 0 0 0 0 0
0 0 0 0 0 0 2 3 4 3 3 3 3 3 3 3 2 1 0 0 0 0 0 0 0 0 0 0 0 0 0 0 0 0 0 0 0 0 0 0 0 0 0 0
0 0 0 0 0 0 1 2 3 2 2 2 3 3 3 2 1 0 0 0 0 0 0 0 0 0 0 0 0 0 0 0 0 0 0 0 0 0 0 0 0 0 0 0
0 0 0 0 0 0 0 1 1 1 2 2 3 3 3 1 0 0 0 0 0 0 0 0 0 0 0 0 0 0 0 0 0 0 0 0 0 0 0 0 0 0 0 0

GEFSNGP_con_probscp_192.txt.gz
Probability
0 0 0 0 0 0 0 0 1 2 6 12 18 21 25 29 33 40 45 49 58 66 68 67 66 68 70 69 64 59 59 60 59 51 41 36 35 33 28 22 18 17 16 16
0 0 0 0 0 0 0 0 1 3 9 15 20 23 26 30 35 41 47 50 58 66 69 68 66 66 69 67 62 58 56 55 52 45 38 34 32 28 23 19 17 16 16 16
0 0 0 0 0 0 0 0 2 6 12 17 21 26 30 34 38 45 52 56 61 65 67 67 65 64 64 62 58 54 50 45 41 38 34 32 28 23 20 19 18 18 17 17
1 0 0 0 0 0 0 2 6 10 14 15 20 27 33 36 40 48 58 64 64 63 64 64 62 61 58 55 50 45 39 35 33 32 31 29 25 22 21 21 20 19 18 17
2 1 0 0 0 0 2 6 12 14 14 15 18 25 33 39 45 55 65 69 66 63 63 62 59 57 54 49 42 34 30 28 28 27 27 25 22 20 20 20 19 18 17 16
3 1 0 1 1 1 5 13 18 17 16 17 21 29 40 50 58 65 71 72 68 66 64 61 57 53 49 43 35 29 26 24 24 24 24 23 21 20 19 17 16 16 16 15
4 2 3 4 6 10 19 28 30 26 24 27 34 44 53 59 64 68 71 69 67 65 64 61 55 48 42 38 32 27 24 22 22 22 22 22 21 20 18 16 15 14 14 13
7 10 15 21 25 32 43 48 44 37 35 39 47 55 60 62 62 63 64 63 61 62 62 59 52 44 39 36 32 27 23 21 21 20 20 20 20 19 17 15 13 12 12 11
17 23 32 40 46 51 54 53 48 42 41 46 52 56 61 64 63 61 61 61 59 57 56 53 47 41 37 35 31 27 23 21 19 18 18 18 18 16 14 13 12 11 9 7
29 33 39 45 49 50 48 45 43 42 43 46 52 57 63 68 68 65 61 57 53 49 46 43 39 34 31 29 26 22 19 16 14 14 15 15 13 12 10 10 10 8 5 3
35 36 37 39 40 42 42 40 41 42 43 46 51 58 65 68 67 62 56 49 44 40 37 33 29 25 23 22 19 15 12 10 9 10 11 11 9 7 6 6 5 4 2 0
36 37 38 38 38 39 41 41 42 44 45 46 50 56 61 60 56 53 49 44 40 35 32 28 23 20 18 16 12 9 8 7 7 9 10 8 6 4 3 3 1 1 0 0
41 40 40 40 38 39 42 43 44 46 46 44 45 48 49 46 42 40 40 40 37 32 27 23 18 14 12 10 7 6 6 6 7 8 8 7 4 3 1 1 0 0 0 0
41 40 39 36 34 37 41 41 40 41 40 38 36 35 34 32 30 30 33 35 33 29 23 18 13 9 7 6 4 4 4 5 7 8 8 6 4 2 1 0 0 0 0 0
32 32 32 29 26 29 31 32 31 31 30 28 27 25 25 25 24 25 29 30 30 26 20 15 10 6 5 4 3 3 3 4 6 8 8 6 3 1 0 0 0 0 0 0
23 24 25 21 17 17 19 21 21 21 22 22 21 21 22 23 23 25 27 26 25 23 17 12 8 5 4 4 3 3 3 3 5 7 7 5 2 0 0 0 0 0 0 0
16 19 19 16 13 11 11 14 15 14 15 18 19 20 20 21 23 24 23 21 20 18 15 10 7 4 3 3 3 3 2 3 3 4 5 4 1 0 0 0 0 0 0 0
15 15 15 13 11 10 10 12 12 11 12 14 17 19 20 21 22 21 18 17 16 15 12 7 4 2 1 2 2 1 1 1 2 1 1 1 0 0 0 0 0 0 0 0
15 13 10 9 8 8 9 10 11 11 11 13 15 17 18 19 19 18 16 15 14 12 8 4 2 1 1 1 1 0 0 0 0 0 0 0 0 0 0 0 0 0 0 0
12 10 7 6 5 7 7 8 9 10 10 10 12 14 15 15 15 14 14 13 12 10 6 3 2 2 2 1 0 0 0 0 0 0 0 0 0 0 0 0 0 0 0 0
7 6 6 5 4 5 7 7 7 8 8 7 8 10 12 12 10 9 9 9 8 7 5 2 2 2 1 1 0 0 0 0 0 0 0 0 0 0 0 0 0 0 0 0
5 5 4 4 3 4 6 7 7 6 6 6 6 8 9 9 7 6 5 5 5 4 2 1 1 1 0 0 0 0 0 0 0 0 0 0 0 0 0 0 0 0 0 0
5 4 4 3 3 3 4 6 6 6 4 4 5 6 7 7 6 5 4 3 3 1 0 0 0 0 0 0 0 0 0 0 0 0 0 0 0 0 0 0 0 0 0 0
4 4 3 3 2 2 3 5 6 6 4 3 4 6 6 6 6 4 3 3 1 0 0 0 0 0 0 0 0 0 0 0 0 0 0 0 0 0 0 0 0 0 0 0
4 3 3 2 1 2 4 6 7 6 5 4 3 4 5 5 5 4 3 2 1 0 0 0 0 0 0 0 0 0 0 0 0 0 0 0 0 0 0 0 0 0 0 0
4 4 3 3 3 4 4 5 6 5 4 3 2 1 2 3 4 3 3 2 1 0 0 0 0 0 0 0 0 0 0 0 0 0 0 0 0 0 0 0 0 0 0 0
4 4 4 4 6 6 4 4 5 4 3 1 0 0 1 2 3 3 3 2 1 0 0 0 0 0 0 0 0 0 0 0 0 0 0 0 0 0 0 0 0 0 0 0

GEFSNGP_con_probscp_198.txt.gz
Probability
0 0 0 0 0 0 0 0 0 2 5 7 13 26 36 39 42 44 46 47 48 48 48 49 49 46 46 47 43 40 39 36 33 30 26 23 18 11 7 7 6 5 3 3
0 0 0 0 0 0 0 1 2 3 6 9 16 27 38 42 45 47 48 48 49 50 50 50 49 46 45 44 41 38 37 34 30 27 26 23 17 11 8 6 4 4 4 4
0 0 0 0 0 0 1 4 5 6 10 18 26 33 39 44 47 50 51 50 50 50 47 44 43 42 40 38 34 33 31 27 23 22 21 19 14 10 8 6 4 4 5 6
0 0 0 0 1 1 4 8 11 12 17 27 35 42 43 45 48 51 49 46 46 45 40 37 36 35 33 30 27 25 22 18 17 16 15 13 12 10 8 7 7 6 6 6
0 0 0 1 3 5 9 15 18 20 24 30 39 48 48 45 48 49 44 40 41 41 37 34 32 30 28 25 22 18 14 12 12 13 12 11 10 9 9 9 8 7 6 6
1 1 1 4 8 12 16 21 24 26 27 31 39 47 47 44 44 44 41 39 40 39 36 32 28 25 23 20 18 16 13 12 13 13 12 10 9 9 9 9 8 7 6 6
2 1 2 7 15 17 17 21 24 27 30 33 39 46 48 47 46 43 41 41 40 37 33 29 25 20 17 15 15 15 14 14 14 14 13 10 9 9 8 8 7 7 6 6
1 1 3 9 17 18 17 19 24 27 33 39 46 52 54 55 53 49 45 43 39 33 27 23 20 17 14 13 14 14 14 13 13 13 11 10 9 8 7 6 6 6 6 6
6 6 9 13 18 21 22 25 27 30 37 47 53 56 58 58 57 52 47 42 35 28 21 17 14 13 12 11 11 11 11 10 10 10 9 7 6 5 4 4 4 5 6 6
14 15 17 21 24 26 29 31 34 37 44 54 57 56 55 54 53 48 41 35 28 21 16 12 9 9 9 8 8 8 8 8 7 7 6 5 4 3 3 3 3 4 4 4
16 18 22 26 28 30 31 32 36 41 48 54 54 53 52 49 47 42 34 27 21 16 12 9 7 7 7 7 6 6 6 6 6 6 5 4 3 3 3 3 3 3 3 3
11 16 22 26 28 31 31 30 33 38 43 46 46 46 46 44 40 35 27 22 19 15 11 8 6 6 6 6 6 6 6 6 6 5 4 3 3 3 3 3 3 2 2 2
10 15 23 27 30 30 30 29 30 34 37 38 38 39 39 37 34 29 22 18 16 13 9 6 5 5 4 4 4 4 5 6 5 3 3 3 3 3 3 3 2 1 1 1
13 18 24 29 30 28 28 28 29 31 32 32 31 31 32 28 24 21 16 13 12 9 7 5 4 3 3 3 3 3 4 4 3 2 2 3 3 3 3 3 2 0 0 0
15 19 24 28 27 24 23 25 25 24 24 24 24 24 23 20 15 12 11 10 8 6 4 3 3 3 3 3 3 3 3 3 1 0 1 1 3 3 3 2 1 0 0 0
15 17 20 22 21 18 15 16 17 15 14 15 15 15 16 13 9 7 8 8 6 4 3 3 3 3 3 3 3 3 3 2 1 0 0 1 2 3 3 1 0 0 0 0
10 11 13 14 13 10 7 8 8 8 8 10 10 10 10 9 7 6 6 6 5 4 4 3 3 3 3 3 3 3 3 2 1 0 0 0 1 2 2 1 0 0 0 0
5 4 5 6 5 4 3 3 3 4 5 7 7 7 8 7 6 5 6 6 6 6 5 4 3 3 3 3 3 3 3 2 1 0 0 0 0 1 1 0 0 0 0 0
1 1 1 1 1 1 0 1 1 1 2 3 4 5 6 6 6 7 7 7 6 6 5 3 3 3 2 1 1 3 3 2 1 0 0 0 0 0 0 0 0 0 0 0
1 2 2 1 0 0 0 0 0 0 0 0 2 4 4 5 6 7 7 6 6 5 4 2 2 2 1 0 1 2 2 2 1 0 0 0 0 0 0 0 0 0 0 0
3 4 4 2 1 0 0 0 0 0 0 0 1 1 2 3 6 7 7 6 5 4 3 1 1 1 0 0 0 1 1 1 1 0 0 0 0 0 0 0 0 0 0 0
3 4 4 2 1 0 0 0 0 0 0 0 0 0 1 3 5 6 6 5 4 3 2 1 0 0 0 0 0 0 0 0 0 0 0 0 0 0 0 0 0 0 0 0
1 2 2 1 0 0 0 0 1 1 1 0 0 0 1 2 4 5 5 4 3 2 2 2 1 0 0 0 0 0 0 0 0 0 0 0 0 0 0 0 0 0 0 0
0 1 1 0 0 0 0 0 1 2 1 0 0 0 1 1 1 3 4 3 2 2 2 2 1 0 0 0 0 0 0 0 0 0 0 0 0 0 0 0 0 0 0 0
0 0 0 0 0 0 0 0 1 1 0 0 0 0 0 0 0 1 2 3 2 2 2 1 0 0 0 0 0 0 0 0 0 0 0 0 0 0 0 0 0 0 0 0
0 0 0 0 0 0 0 0 0 0 0 0 0 0 0 0 0 0 1 3 3 2 2 1 0 0 0 0 0 0 0 0 0 0 0 0 0 0 0 0 0 0 0 0
0 0 0 0 0 0 0 0 0 0 0 0 0 0 0 0 0 0 1 2 3 3 2 1 0 0 0 0 0 0 0 0 0 0 0 0 0 0 0 0 0 0 0 0

GEFSNGP_con_probscp_204.txt.gz
Probability
0 0 0 0 0 0 0 0 0 0 0 1 6 14 18 18 19 19 21 25 25 21 22 28 30 30 30 29 28 28 28 26 24 23 20 17 14 11 8 6 5 5 3 2
0 0 0 0 0 0 0 0 0 0 0 3 9 17 20 22 23 22 21 23 23 21 23 27 28 28 28 26 25 24 24 24 22 20 18 16 13 11 9 7 6 4 3 3
0 0 0 0 0 0 0 0 0 0 2 5 13 20 22 23 25 23 20 20 20 19 22 25 26 25 24 22 20 19 19 19 17 16 16 15 13 11 9 7 6 4 3 3
0 0 0 0 1 1 0 0 0 2 4 8 14 19 21 22 22 20 18 18 18 18 21 24 24 22 21 20 19 17 16 15 14 15 15 14 12 10 8 7 6 5 4 3
0 0 0 0 1 2 1 0 1 3 7 11 17 20 20 20 21 20 20 21 20 20 21 22 21 20 20 20 20 19 17 15 13 14 14 13 11 8 7 6 5 4 3 3
0 0 0 0 1 1 1 0 1 4 9 15 19 19 17 19 23 24 25 25 24 23 22 22 21 20 20 19 19 17 16 14 13 13 13 12 9 7 6 5 4 3 2 1
1 1 0 0 1 1 0 0 2 6 11 14 16 15 16 21 28 30 29 28 26 24 22 22 22 21 19 17 14 13 12 12 12 12 11 9 8 7 6 5 4 3 2 1
0 0 0 1 3 3 2 2 3 7 11 13 15 16 19 25 31 33 31 29 25 23 23 22 22 21 18 14 11 9 9 11 11 10 9 8 6 6 6 5 4 3 2 1
2 3 3 5 7 8 6 5 6 7 10 13 18 20 23 28 31 31 29 27 24 23 23 21 19 18 15 11 9 9 9 10 10 9 8 7 6 5 4 4 3 3 3 3
7 8 8 9 11 11 10 9 9 9 10 15 21 24 27 30 31 28 25 23 22 22 22 19 15 13 11 9 8 8 9 9 9 9 8 7 6 4 3 3 3 3 3 3
9 9 9 9 11 12 11 10 11 13 15 19 25 29 30 32 31 27 21 19 19 20 18 14 9 7 6 6 5 5 6 6 7 7 7 6 5 4 3 3 3 3 3 3
6 6 6 8 10 11 11 10 13 16 19 23 27 30 31 31 29 26 21 18 17 15 13 10 6 4 4 4 4 4 4 4 4 5 6 6 5 4 3 3 3 3 3 3
3 4 6 9 12 12 11 11 14 17 19 23 25 26 27 27 25 23 20 16 14 12 10 8 5 3 3 3 3 3 3 3 3 4 5 5 5 4 3 3 3 3 2 1
2 3 7 11 13 12 12 14 17 18 20 22 24 23 23 22 20 18 16 12 9 9 9 7 5 4 3 3 3 3 3 3 3 3 4 3 3 3 3 3 3 3 1 0
2 4 8 12 13 11 12 15 17 19 20 21 22 21 19 18 17 15 12 7 5 5 7 6 5 4 3 3 3 3 3 3 3 3 2 1 1 1 2 3 3 3 1 0
5 6 9 12 12 10 10 13 16 17 17 17 17 17 15 14 14 13 9 5 3 4 4 4 4 3 3 3 3 3 3 3 3 2 1 0 0 0 1 2 3 3 2 1
6 6 8 11 11 9 9 10 12 13 13 13 13 12 11 9 9 8 6 4 3 3 3 3 3 3 3 3 3 3 3 3 1 1 0 0 0 0 0 1 1 2 2 1
4 4 6 8 8 7 6 6 7 8 8 9 9 8 7 6 5 4 3 3 3 3 3 3 3 3 3 3 3 3 3 2 1 0 0 0 0 0 0 0 0 1 1 0
3 3 4 4 4 4 3 2 2 3 4 4 4 4 3 3 1 1 3 3 3 3 3 3 3 3 3 3 3 3 2 1 0 0 0 0 0 0 0 0 0 0 0 0
2 2 2 2 1 1 1 0 0 0 1 1 1 1 1 1 0 1 2 3 3 3 3 3 3 3 3 3 3 3 1 0 0 0 0 0 0 0 0 0 0 0 0 0
1 1 1 1 0 0 0 0 0 0 0 0 0 0 0 0 0 1 2 3 3 3 3 3 3 3 3 3 3 2 1 0 0 0 0 0 0 0 0 0 0 0 0 0
0 0 0 0 0 0 0 0 0 0 0 0 0 0 0 0 0 1 2 2 2 2 2 3 3 3 3 3 3 2 1 0 0 0 0 0 0 0 0 0 0 0 0 0
0 0 0 0 0 0 0 0 0 0 0 0 0 0 0 0 0 0 1 1 1 0 1 2 2 1 1 2 2 1 0 0 0 0 0 0 0 0 0 0 0 0 0 0
0 0 0 0 0 0 0 0 0 0 0 0 0 0 0 0 0 0 0 0 0 0 0 1 1 0 1 1 1 0 0 0 0 0 0 0 0 0 0 0 0 0 0 0
0 0 0 0 0 0 0 0 0 0 0 0 0 0 0 0 0 0 0 0 0 0 0 0 0 0 0 0 0 0 0 0 0 0 0 0 0 0 0 0 0 0 0 0
0 0 0 0 0 0 0 0 0 0 0 0 0 0 0 0 0 0 0 0 0 0 0 0 0 0 0 0 0 0 0 0 0 0 0 0 0 0 0 0 0 0 0 0
0 0 0 0 0 0 0 0 0 0 0 0 0 0 0 0 0 0 0 0 0 0 0 0 0 0 0 0 0 0 0 0 0 0 0 0 0 0 0 0 0 0 0 0

GEFSNGP_con_probscp_210.txt.gz
Probability
0 0 0 0 0 0 0 0 0 0 2 6 10 14 17 19 19 19 22 29 38 43 45 44 46 49 50 48 43 37 35 32 29 27 25 24 24 23 22 22 24 23 20 18
0 0 0 0 0 0 0 0 0 0 3 7 12 15 18 18 19 20 22 28 34 40 44 45 46 48 49 47 43 39 35 31 28 26 24 23 23 22 21 20 21 20 18 17
0 0 0 0 0 0 0 0 1 1 3 7 12 17 20 20 22 25 27 29 33 38 42 44 45 47 48 46 42 39 34 30 27 25 23 23 23 21 19 19 18 16 15 16
0 0 0 0 0 0 0 1 2 2 5 9 13 19 22 22 25 29 31 34 38 41 42 42 43 46 45 41 38 34 31 29 27 24 22 23 22 20 18 17 15 13 13 13
0 0 0 0 0 0 0 2 3 4 8 12 16 19 21 23 26 31 35 39 44 46 45 43 43 44 41 37 34 31 29 28 25 22 21 21 20 17 15 14 13 11 11 11
0 0 0 0 0 0 0 2 4 9 13 15 15 17 21 27 31 36 42 47 51 52 50 47 44 42 39 35 33 29 27 26 23 20 19 18 17 15 13 11 11 10 10 10
0 0 0 1 2 2 3 6 11 15 18 18 17 19 26 33 38 42 48 53 55 55 53 49 44 42 39 35 31 27 24 22 20 17 16 16 15 13 12 10 10 10 10 10
0 0 2 4 6 10 14 18 20 21 22 21 22 27 31 36 41 46 52 56 56 53 50 45 41 40 37 33 28 23 20 18 16 13 12 13 13 12 11 10 10 10 9 9
2 2 4 7 12 19 24 28 28 27 26 25 27 31 33 37 43 50 56 58 55 51 46 41 38 37 35 31 26 21 17 15 12 11 10 11 12 12 11 10 10 9 9 8
6 6 7 11 16 21 25 28 30 30 29 28 28 30 36 41 47 54 58 56 53 50 46 40 36 33 31 28 24 18 14 12 10 9 9 10 11 11 10 9 9 8 7 7
11 12 14 16 19 19 21 25 29 30 29 28 28 34 42 47 51 54 54 53 52 50 45 40 35 30 28 25 20 15 12 10 9 8 8 8 8 8 8 7 7 6 6 6
18 20 21 22 22 21 21 25 29 31 29 28 31 37 43 47 49 48 47 49 49 46 41 36 32 28 25 22 18 14 11 9 7 7 7 7 6 6 5 5 4 3 3 3
23 24 25 24 23 23 24 25 27 29 30 30 32 34 39 43 43 41 40 42 43 41 37 32 28 26 23 20 17 14 11 8 6 6 6 6 6 6 6 5 4 2 1 1
23 24 24 23 22 23 24 23 22 24 27 29 30 32 36 38 38 35 34 34 35 34 32 30 27 25 21 17 14 12 9 7 5 4 4 4 5 6 6 6 4 3 2 1
21 22 22 21 20 21 21 20 20 20 22 25 28 32 33 33 32 30 29 28 28 28 27 27 25 23 17 11 9 9 7 5 3 3 3 3 4 5 6 6 4 3 3 3
19 19 19 19 18 18 18 17 18 19 21 23 27 29 28 27 26 25 25 24 23 22 22 22 21 19 15 9 7 7 6 4 3 3 3 3 3 4 4 5 4 3 3 3
17 17 18 17 15 14 14 16 19 20 21 23 24 25 24 23 22 22 22 22 21 20 18 17 18 18 15 10 7 7 6 5 4 3 3 3 3 3 4 4 4 3 3 3
16 17 17 15 12 11 13 16 19 21 21 20 21 20 20 19 20 21 21 21 20 18 16 15 16 17 14 9 7 7 7 6 4 3 3 3 3 3 4 4 3 2 2 2
12 13 15 14 13 13 15 16 18 20 20 18 17 16 16 16 17 18 18 18 17 15 14 13 15 15 12 8 6 6 6 5 4 3 2 2 2 2 3 2 1 1 1 1
7 8 11 13 13 14 15 16 18 19 19 16 14 12 12 13 14 14 12 11 11 12 12 12 13 13 11 7 5 5 4 4 3 1 1 0 1 1 1 1 0 0 0 0
6 7 9 10 11 12 13 13 14 16 15 12 10 9 9 10 10 10 8 7 8 9 10 10 11 10 9 6 4 4 3 3 2 1 0 0 0 0 0 0 0 0 0 0
9 10 10 10 10 10 10 9 10 11 10 7 6 6 7 7 6 5 5 5 6 8 9 9 8 7 6 5 4 3 3 3 2 1 0 0 0 0 0 0 0 0 0 0
11 11 10 9 8 7 6 7 8 7 5 3 3 3 4 4 3 2 2 3 5 6 8 9 7 5 4 4 5 4 3 2 1 0 0 0 0 0 0 0 0 0 0 0
10 10 9 7 5 4 5 6 6 5 3 2 1 1 1 2 1 1 0 1 2 4 6 6 5 3 3 4 5 4 3 2 0 0 0 0 0 0 0 0 0 0 0 0
9 9 8 5 3 2 3 4 4 4 3 2 2 1 0 0 0 0 0 0 0 1 2 3 2 2 2 4 4 4 3 2 1 0 0 0 0 0 0 0 0 0 0 0
6 7 6 4 2 2 3 3 3 3 3 3 2 1 0 0 0 0 0 0 0 0 1 2 2 2 3 4 5 4 4 2 1 0 0 0 0 0 0 0 0 0 0 0
4 5 5 3 1 1 2 3 3 3 2 2 2 1 0 0 0 0 0 0 0 0 0 1 2 3 3 4 5 5 4 2 0 0 0 0 0 0 0 0 0 0 0 0

GEFSNGP_con_probscp_216.txt.gz
Probability
0 0 0 0 0 0 0 0 0 0 3 11 22 30 32 36 39 37 37 43 51 57 59 59 59 58 59 58 57 56 54 51 48 44 39 34 32 29 27 28 26 24 22 22
0 0 0 0 0 0 0 0 0 1 6 15 25 32 36 40 43 41 39 43 51 57 59 58 58 58 59 58 59 59 55 49 45 40 36 32 30 29 28 28 26 23 21 20
0 0 0 0 0 0 0 0 0 3 11 22 30 34 38 44 47 46 43 45 51 58 59 58 59 61 60 60 61 60 53 45 39 36 33 30 29 29 28 27 23 20 18 18
0 0 0 0 0 0 0 0 1 7 15 25 31 34 36 42 47 48 47 49 54 59 60 60 62 63 62 61 61 56 48 40 35 34 33 30 28 28 26 23 19 17 16 15
0 0 0 1 1 0 0 2 5 10 17 23 28 32 35 42 50 54 55 56 58 59 61 65 67 65 62 60 58 52 43 37 33 32 31 29 26 25 23 20 17 15 13 12
0 0 1 3 3 1 2 6 11 16 21 24 25 30 39 49 58 64 66 64 61 62 66 70 69 67 63 58 53 47 40 35 32 31 29 26 22 20 19 17 14 13 11 10
0 1 3 5 6 8 15 22 23 24 26 27 28 33 46 57 64 70 72 68 65 67 70 70 68 65 61 55 50 45 40 35 32 30 26 21 18 16 16 15 13 11 10 10
3 6 11 15 19 28 40 43 37 32 31 30 32 40 52 62 66 69 70 69 68 69 70 68 65 63 60 55 50 47 41 36 32 28 23 18 14 13 13 12 10 9 9 9
13 18 25 32 40 49 55 52 44 37 34 32 34 42 54 64 69 70 68 67 66 66 67 67 66 64 61 56 51 47 42 36 31 27 23 18 13 11 11 9 8 7 8 9
26 29 32 38 45 49 49 46 41 38 35 34 34 42 54 65 72 72 66 62 61 62 63 66 67 66 61 55 49 46 42 35 30 26 22 17 12 10 9 7 7 7 7 8
39 36 31 31 34 35 36 37 36 34 35 35 37 45 55 63 68 67 62 58 58 58 60 63 64 64 60 53 49 46 40 33 27 22 17 12 8 6 6 6 6 6 7 7
41 39 33 29 26 24 27 30 30 32 34 36 41 47 52 56 57 56 54 54 56 57 58 60 61 61 60 54 49 45 38 30 22 16 12 9 6 5 5 4 3 4 5 6
37 37 37 31 25 23 25 28 30 32 35 38 43 47 48 47 46 45 45 48 51 54 55 56 57 58 57 52 46 40 34 25 17 13 10 8 7 7 6 5 3 3 3 3
29 31 32 29 26 26 26 28 31 34 37 39 42 44 43 42 41 40 40 43 47 50 52 50 49 50 50 45 40 33 26 20 15 13 11 10 9 8 8 7 5 4 2 2
21 21 20 22 24 26 27 27 30 33 36 37 37 38 38 39 40 39 39 41 44 47 46 43 42 43 43 39 35 31 23 17 14 14 12 12 10 8 7 7 7 5 3 2
17 16 15 16 21 25 26 25 26 28 32 35 36 34 35 38 41 40 39 39 39 40 39 37 36 36 37 35 33 30 22 15 13 13 12 12 10 8 7 6 6 4 3 2
16 16 17 18 20 23 23 22 22 24 29 34 36 36 36 38 41 41 39 36 34 32 31 31 31 32 33 31 29 26 20 14 11 10 11 10 9 8 7 6 5 3 2 2
12 15 19 20 19 19 20 19 20 24 31 34 34 34 34 35 37 36 34 32 31 30 28 27 27 29 30 27 25 22 19 15 11 9 8 8 7 6 6 5 4 3 2 1
11 14 17 18 16 17 20 21 22 27 32 33 31 29 29 30 31 30 29 29 29 30 29 26 22 23 24 22 20 20 18 15 12 9 8 6 5 4 4 4 4 4 2 2
11 11 12 13 14 17 22 24 25 28 31 33 32 30 29 29 28 29 29 28 28 28 26 22 19 18 17 15 15 15 14 12 11 9 7 5 4 3 3 3 3 3 1 1
10 10 10 11 13 18 22 25 26 27 30 33 35 35 34 31 29 30 30 28 25 22 18 16 16 16 13 11 9 10 10 10 10 9 7 4 3 3 3 3 2 1 0 0
13 14 15 15 16 19 22 26 25 25 29 33 36 37 36 30 26 26 25 21 16 13 12 12 13 12 10 8 8 8 9 10 9 8 6 4 3 3 3 2 1 0 0 0
16 19 21 21 20 21 23 25 24 24 29 33 35 34 30 23 16 15 14 10 7 7 10 10 9 8 7 7 8 9 9 9 9 8 7 6 4 3 2 1 0 0 0 1
18 20 22 23 21 21 22 23 22 23 27 30 30 27 21 13 7 6 6 4 2 4 7 7 6 5 6 8 9 10 10 9 8 7 7 6 4 2 1 0 0 0 1 2
16 17 18 18 17 16 17 18 19 20 23 24 22 18 13 7 5 5 5 2 1 2 4 4 3 3 5 8 10 10 10 9 8 7 7 6 4 1 0 0 0 1 3 3
13 14 15 14 12 12 12 12 13 15 17 18 15 12 9 7 6 7 5 2 0 1 1 2 3 4 6 9 9 9 9 9 8 8 7 7 5 2 1 1 1 2 3 4
12 13 14 13 11 9 9 8 8 10 13 14 13 10 8 7 7 7 4 1 0 0 0 1 4 5 7 8 9 8 8 8 8 9 8 8 6 4 4 4 3 3 3 3

GEFSNGP_con_probscp_222.txt.gz
Probability
0 0 0 0 0 0 0 0 0 1 5 14 23 29 33 37 41 42 39 37 34 33 36 37 37 39 42 39 32 29 30 30 28 25 22 20 17 15 16 13 9 8 8 8
0 0 0 0 0 0 0 0 0 1 5 14 24 31 34 37 38 39 39 39 37 36 36 38 38 38 39 35 30 28 29 28 25 23 22 22 20 18 15 13 10 9 9 9
0 0 0 0 0 0 1 1 1 3 9 18 28 34 35 35 34 34 37 39 39 38 38 38 38 37 35 32 28 27 27 25 23 22 22 23 22 19 15 12 12 11 10 11
0 0 0 0 0 2 3 4 5 9 16 25 32 36 33 31 30 31 34 38 38 38 38 37 37 35 33 31 28 26 25 24 23 23 22 22 22 19 14 12 12 11 10 10
0 0 0 0 1 3 6 10 14 20 26 32 36 36 30 27 28 30 34 38 38 37 37 37 36 35 32 29 27 25 25 25 24 23 22 21 20 16 11 10 10 9 9 9
0 0 0 1 2 4 8 15 21 27 33 37 37 34 29 29 33 35 38 41 42 41 39 37 36 35 32 28 25 25 26 25 24 22 20 19 17 12 8 7 7 7 7 8
0 0 0 3 5 5 8 14 21 29 36 37 35 33 34 38 41 42 44 48 50 48 45 41 38 36 33 27 24 24 24 24 22 20 18 15 13 9 6 6 6 6 6 5
0 0 2 6 10 9 11 16 22 30 36 37 36 38 43 46 47 48 50 54 56 53 48 44 41 37 31 25 22 23 22 21 20 17 14 11 9 7 6 5 6 6 6 4
3 4 7 13 15 15 17 22 28 32 37 41 42 44 47 50 51 52 54 55 56 52 47 43 39 33 27 22 22 23 22 20 18 14 9 6 6 6 6 6 6 6 6 4
11 12 16 19 20 20 22 25 30 34 39 43 44 44 47 49 50 52 51 50 50 48 44 40 35 28 24 23 24 24 23 19 15 11 6 4 4 4 5 6 7 7 6 4
16 16 17 19 20 20 22 25 28 32 38 43 44 44 45 46 47 46 44 42 42 44 43 39 35 28 24 24 25 24 22 18 13 9 5 3 2 2 3 5 7 7 5 4
13 13 14 16 18 19 21 23 24 29 35 41 43 44 43 43 43 41 39 37 38 41 41 38 34 29 24 23 23 23 20 16 12 8 5 3 2 1 2 4 4 4 3 3
10 12 15 16 18 20 22 23 25 29 35 40 40 39 38 37 37 37 36 35 37 38 37 35 32 27 22 20 21 21 18 14 10 7 6 4 3 2 3 3 2 1 1 1
11 13 16 18 19 22 24 25 28 32 36 38 36 33 31 31 32 34 34 35 36 36 35 32 29 25 20 18 19 18 15 11 8 7 6 4 3 3 3 3 2 1 0 0
11 12 14 17 19 21 24 27 30 33 35 35 33 31 29 28 29 31 33 34 35 34 33 30 27 24 20 18 17 15 12 9 7 6 6 4 3 3 3 3 3 1 0 0
8 9 11 14 15 18 22 25 28 30 30 30 30 30 29 27 27 28 30 31 31 31 30 28 25 21 19 18 14 10 9 7 5 5 5 5 4 3 3 3 3 2 1 0
7 7 7 8 9 13 17 20 24 27 27 27 28 27 25 24 24 25 26 26 27 28 28 26 23 19 17 15 11 7 5 5 4 4 4 4 3 3 3 3 3 3 2 1
5 5 4 3 3 6 11 15 19 23 24 25 26 25 20 19 20 21 23 23 24 25 25 23 19 15 13 11 9 6 4 3 3 3 3 3 3 3 3 3 3 3 2 1
5 5 4 2 1 4 7 10 13 17 18 20 23 22 18 15 16 19 20 20 19 19 19 17 13 11 11 9 7 6 5 4 3 3 3 3 3 3 3 3 3 3 2 1
5 6 6 4 3 4 7 8 11 13 14 15 18 20 17 14 13 16 16 15 14 13 12 11 10 10 9 7 7 7 6 5 4 4 3 3 3 3 3 3 3 3 1 0
5 6 6 6 5 5 6 7 9 11 12 12 14 15 14 11 11 12 12 12 11 10 9 9 10 10 8 7 7 8 7 6 6 5 4 4 3 3 3 3 3 2 1 0
4 5 6 6 6 5 6 6 8 10 11 11 11 10 9 8 8 10 10 10 8 7 7 7 8 8 8 8 9 9 8 7 6 6 6 5 4 4 3 3 3 2 1 0
4 4 6 5 5 5 6 7 8 9 10 11 9 8 7 7 7 7 7 7 5 3 3 4 5 6 7 8 9 9 9 7 7 6 6 6 6 5 4 3 3 2 1 0
4 5 5 5 4 5 7 8 8 7 8 9 9 8 8 7 6 4 4 3 1 1 1 1 2 3 5 7 8 9 9 8 7 6 6 6 6 6 5 4 3 2 1 0
6 6 6 5 5 6 6 7 7 6 6 5 6 7 7 5 4 2 1 0 0 0 0 0 0 1 3 4 6 7 7 7 7 6 6 6 6 6 5 3 1 1 0 0
5 5 6 6 6 6 6 5 6 6 5 3 3 4 4 2 1 1 0 0 0 0 0 0 0 1 2 3 5 6 6 6 6 6 6 6 5 4 4 3 1 1 0 0
2 3 5 7 7 7 6 5 6 7 5 2 1 1 2 1 0 0 0 0 0 0 0 0 0 0 1 3 5 6 6 6 6 6 6 5 4 4 3 3 2 2 1 0

GEFSNGP_con_probscp_228.txt.gz
Probability
0 0 0 0 0 0 0 0 0 0 0 0 2 6 9 10 12 14 14 14 14 15 16 19 25 27 24 22 22 21 20 19 16 14 13 11 7 5 5 5 5 5 4 4
0 0 0 0 0 0 0 0 0 0 0 0 2 7 11 11 13 15 15 15 17 18 19 21 25 26 23 23 24 24 22 20 17 16 15 12 8 5 5 7 7 7 6 5
0 0 0 0 0 0 0 0 0 1 1 1 4 9 12 13 13 16 18 19 21 22 21 22 24 25 24 25 26 26 25 22 19 19 18 14 10 7 6 8 10 10 9 9
0 0 0 0 0 0 0 0 1 2 4 5 7 10 13 14 15 17 19 21 22 22 20 19 22 25 27 26 25 25 25 22 20 20 19 17 13 10 9 9 11 12 11 10
0 0 0 0 0 0 0 0 1 4 8 11 13 13 13 14 15 16 18 20 21 22 21 19 21 24 27 27 25 23 21 19 18 19 19 18 15 12 10 10 10 11 10 9
0 0 0 0 0 0 0 0 1 5 12 16 16 13 11 13 16 17 20 22 24 25 24 22 19 20 23 25 25 22 17 15 15 16 17 17 14 12 10 9 9 8 8 7
0 0 0 1 1 1 0 0 1 6 12 17 15 11 12 17 21 24 27 30 32 30 27 23 17 15 19 23 23 20 16 14 15 15 15 14 13 11 9 8 7 7 6 6
0 0 0 1 2 1 0 0 1 4 11 15 14 14 17 23 28 32 36 39 39 35 29 22 17 15 18 21 21 19 17 16 15 15 14 13 12 10 7 5 5 6 6 6
1 2 1 1 2 2 2 2 2 4 9 13 16 18 22 28 33 36 38 41 41 35 28 23 19 19 20 20 20 19 17 15 14 14 14 13 11 8 4 3 3 4 4 4
3 4 4 3 2 4 6 7 7 7 9 13 17 20 23 29 33 34 35 38 39 34 27 22 19 19 19 17 16 16 14 14 13 13 13 12 9 6 3 2 3 3 3 2
4 4 5 6 5 7 11 13 12 12 14 17 20 20 23 27 29 30 31 34 35 31 24 18 16 15 15 13 13 14 14 14 14 14 13 10 7 4 3 2 3 3 2 2
2 2 3 5 6 9 14 16 16 16 19 22 23 22 23 26 27 28 29 30 29 26 20 15 13 12 11 11 12 14 15 15 15 15 13 10 6 3 2 1 2 1 1 1
1 1 1 3 7 11 15 17 18 19 20 21 22 21 23 25 26 26 27 27 25 24 19 14 12 12 11 11 12 14 15 14 14 14 13 10 7 4 3 2 1 0 0 0
1 1 1 4 9 13 16 19 20 19 18 18 17 17 20 22 22 23 24 25 25 25 21 16 14 13 12 11 12 13 13 12 12 13 13 10 7 5 5 4 2 1 0 0
3 2 2 4 9 14 17 19 20 19 16 14 13 14 16 18 18 20 23 25 26 25 22 19 17 14 12 11 12 13 13 11 10 11 11 8 6 5 5 4 3 2 1 0
5 4 3 4 7 11 14 17 19 17 13 11 11 12 14 14 15 19 23 25 26 24 22 20 18 15 11 11 14 14 13 10 8 8 7 5 4 5 4 3 3 3 2 1
4 4 4 5 6 7 10 14 16 14 11 10 11 13 14 14 15 17 19 21 21 20 18 17 16 14 12 13 15 15 12 8 6 5 5 4 3 4 3 3 3 3 3 3
2 2 3 5 5 4 6 9 11 11 11 12 13 15 15 14 14 15 15 15 17 16 13 11 12 13 12 13 14 14 11 8 5 4 4 3 3 3 3 3 3 3 3 3
2 2 3 4 3 3 3 5 7 8 10 11 13 16 16 14 14 14 13 13 14 15 12 8 8 9 9 11 13 12 9 6 4 4 3 3 3 3 3 3 3 3 3 3
4 5 5 3 2 3 3 4 5 6 8 11 13 15 16 14 13 13 12 11 12 13 12 8 7 7 7 8 9 9 6 4 3 3 3 3 3 3 3 3 3 3 3 3
4 6 6 4 3 3 3 3 4 5 7 11 13 15 15 14 13 12 11 10 9 10 10 8 7 7 6 6 6 6 4 3 3 3 4 4 3 3 3 3 3 3 3 3
4 5 6 4 3 3 3 3 3 4 6 9 12 13 13 13 12 10 9 8 6 6 7 7 6 7 6 5 5 4 3 3 3 4 5 5 4 4 3 3 3 3 3 3
3 3 4 4 3 3 3 3 3 4 5 7 8 9 10 10 9 7 5 4 3 4 5 6 5 5 5 5 4 4 3 3 3 4 6 6 6 5 4 4 4 3 3 3
1 1 1 2 2 2 2 2 2 3 3 4 5 6 6 6 5 3 2 1 1 2 4 4 3 3 3 4 4 3 3 3 4 5 6 6 6 6 6 6 5 4 4 4
0 0 0 0 1 1 1 1 1 1 1 2 3 4 3 2 1 0 0 0 0 1 2 2 3 3 3 3 3 3 3 3 3 4 4 5 6 6 6 6 6 6 6 6
0 0 0 0 0 0 0 0 0 0 1 2 3 3 1 1 0 0 0 0 0 1 1 1 2 3 3 3 3 3 3 3 3 3 3 4 4 4 5 6 6 6 6 6
0 0 0 0 0 0 0 0 0 0 1 2 3 2 1 0 0 0 0 0 1 1 1 0 1 3 3 3 3 3 3 3 3 3 3 3 3 4 5 6 6 6 6 6